Location: Irma
(52.9170°N, 111.2330°W)
Time: 00:59:51
(UTC-07:00)

Amateur Radio Satellites - All Passes

Search period start: 20 January 2017 00:29
Search period end: 21 January 2017 00:29
Location: Irma, 52.9170°N, 111.2330°W

Satellite Date Start Highest point End Downlink Frequencies (MHz)
Time Altitude Azimuth
BEESAT 2 20 Jan 00:31:36 00:35:31 44° 37° (NE) 00:39:24 435.950
BUGSAT 1 20 Jan 00:32:35 00:36:17 34° 97° (E) 00:39:58 437.445
CUBEBUG 1 20 Jan 00:41:46 00:44:29 16° 272° (W) 00:47:13 437.445
BEESAT 20 Jan 00:42:55 00:46:30 22° 56° (ENE) 00:50:05 436.000
SWISSCUBE 20 Jan 00:44:15 00:48:00 24° 58° (ENE) 00:51:47 437.505
AIST 2 20 Jan 00:45:32 00:48:16 16° 3° (N) 00:51:01 435.215
QB50P1 20 Jan 00:52:28 00:56:37 56° 290° (WNW) 01:00:44 145.935-145.965
UNISAT 6 20 Jan 00:55:56 00:57:18 11° 309° (NW) 00:58:41 437.425
AISAT 20 Jan 00:56:25 00:59:18 17° 271° (W) 01:02:10 437.250
POLYITAN 1 20 Jan 00:56:27 01:00:34 51° 291° (WNW) 01:04:41 437.675
QB50P2 20 Jan 00:57:43 01:01:47 47° 292° (WNW) 01:05:51 145.880/145.840
RS-15 20 Jan 00:59:26 01:11:27 81° 128° (SE) 01:23:52 29.354- 29.394
Cosmos 2491 20 Jan 01:00:52 01:07:30 25° 76° (ENE) 01:14:10 435.465 / 435.565
Oscar 19 20 Jan 01:01:28 01:05:36 23° 91° (E) 01:09:40 437.125/150
Gurwin Techsat 1B 20 Jan 01:11:18 01:14:46 17° 87° (E) 01:18:11 435.225
POPSAT HIP 1 20 Jan 01:19:35 01:23:24 33° 295° (WNW) 01:27:11 437.405
ISS 20 Jan 01:20:32 01:23:46 65° 171° (S) 01:27:00 145.825
BEESAT 3 20 Jan 01:25:56 01:29:42 40° 236° (SW) 01:33:28 437.485
DUCHIFAT 1 20 Jan 01:31:13 01:34:53 30° 296° (WNW) 01:38:32 145.980
AUBIESAT-1 20 Jan 01:31:45 01:33:38 13° 49° (NE) 01:35:29 437.475
AIST 1 20 Jan 01:35:53 01:40:07 58° 264° (W) 01:44:18
NANOSAT C BR1 20 Jan 01:36:37 01:40:05 26° 298° (WNW) 01:43:34 145.865
Cosmos 2504 20 Jan 01:39:23 01:46:50 54° 71° (ENE) 01:53:52 435.465 / 435.565
ITUPSAT 1 20 Jan 01:44:06 01:48:47 60° 69° (ENE) 01:53:31 437.325
JAS-2 20 Jan 01:49:52 01:55:11 25° 308° (NW) 02:00:56 435.910
TISAT 1 20 Jan 01:55:42 01:59:18 27° 266° (W) 02:02:54 437.305
YUBILEINY 20 Jan 01:59:04 02:07:55 77° 264° (W) 02:16:41 435.215
AO-7 20 Jan 02:00:31 02:02:55 11° 77° (ENE) 02:05:20 29.400- 29.500
PCSat 20 Jan 02:03:11 02:08:37 88° 128° (SE) 02:14:06 145.827
BUGSAT 1 20 Jan 02:08:05 02:11:37 30° 296° (WNW) 02:15:10 437.445
BEESAT 2 20 Jan 02:09:33 02:13:15 34° 238° (WSW) 02:16:56 435.950
BEESAT 20 Jan 02:19:05 02:23:50 71° 256° (WSW) 02:28:37 436.000
MOZHAYETS 4 20 Jan 02:19:29 02:23:48 43° 67° (ENE) 02:28:10
SWISSCUBE 20 Jan 02:20:43 02:25:26 63° 258° (WSW) 02:30:13 437.505
STARS 20 Jan 02:24:21 02:25:59 12° 51° (NE) 02:27:37 437.465
AIST 2 20 Jan 02:24:22 02:28:02 27° 27° (NNE) 02:31:41 435.215
M-CUBED/EXP-1 PRIME 20 Jan 02:26:25 02:30:26 41° 62° (ENE) 02:34:11 437.505
QB50P1 20 Jan 02:31:21 02:31:30 10° 310° (NW) 02:31:40 145.935-145.965
Oscar 19 20 Jan 02:40:13 02:45:22 65° 291° (WNW) 02:50:28 437.125/150
CUSAT 1 20 Jan 02:49:03 02:53:57 32° 85° (E) 02:59:56 437.405
Gurwin Techsat 1B 20 Jan 02:50:06 02:55:27 89° 300° (WNW) 03:00:48 435.225
Cosmos 2491 20 Jan 02:54:30 03:03:13 90° 101° (E) 03:12:02 435.465 / 435.565
ISS 20 Jan 02:56:55 03:00:09 61° 191° (S) 03:03:21 145.825
KKS-1 20 Jan 03:02:55 03:07:06 41° 66° (ENE) 03:11:17 437.445
AUBIESAT-1 20 Jan 03:03:20 03:07:31 74° 66° (ENE) 03:11:26 437.475
CUBESAT XI-V 20 Jan 03:04:32 03:08:20 25° 60° (ENE) 03:12:09 437.345
RS-15 20 Jan 03:13:07 03:25:05 56° 338° (NNW) 03:37:16 29.354- 29.394
ITAMSAT 1 20 Jan 03:21:54 03:26:52 43° 98° (E) 03:31:50 435.822/435.867
ITUPSAT 1 20 Jan 03:23:16 03:27:00 23° 269° (W) 03:30:47 437.325
Cosmos 2504 20 Jan 03:33:12 03:39:59 38° 275° (W) 03:46:28 435.465 / 435.565
DANDE 20 Jan 03:36:10 03:39:22 20° 80° (E) 03:43:13 436.750
PCSat 20 Jan 03:47:55 03:52:40 30° 331° (NNW) 03:57:27 145.827
AO-7 20 Jan 03:49:52 03:57:58 50° 101° (E) 04:05:59 29.400- 29.500
MOZHAYETS 4 20 Jan 03:57:06 04:01:07 29° 266° (W) 04:05:10
STARS 20 Jan 03:57:11 04:01:32 64° 70° (ENE) 04:05:52 437.465
YUBILEINY 20 Jan 03:57:12 04:03:16 21° 287° (WNW) 04:09:20 435.215
BEESAT 20 Jan 04:01:00 04:02:31 11° 276° (W) 04:04:02 436.000
M-CUBED/EXP-1 PRIME 20 Jan 04:01:16 04:04:59 28° 258° (WSW) 04:08:31 437.505
Cosmos 2499 20 Jan 04:02:41 04:04:16 11° 36° (NE) 04:05:52 435.465 / 435.565
AIST 2 20 Jan 04:02:42 04:06:59 83° 228° (SW) 04:11:14 435.215
Oscar 19 20 Jan 04:21:00 04:23:47 15° 311° (NW) 04:26:33 437.125/150
CUSAT 1 20 Jan 04:29:55 04:35:26 58° 291° (WNW) 04:42:28 437.405
Gurwin Techsat 1B 20 Jan 04:31:00 04:34:46 20° 307° (NW) 04:38:32 435.225
ISS 20 Jan 04:33:35 04:36:16 23° 210° (SSW) 04:38:55 145.825
AUBIESAT-1 20 Jan 04:39:47 04:42:18 15° 263° (W) 04:44:43 437.475
KKS-1 20 Jan 04:39:54 04:43:47 29° 265° (W) 04:47:42 437.445
CUBESAT XI-V 20 Jan 04:40:45 04:45:24 58° 259° (W) 04:50:06 437.345
STRAND 1 20 Jan 04:41:20 04:43:41 13° 48° (NE) 04:46:04 437.568
BRITE-PL 20 Jan 04:42:20 04:46:40 28° 91° (E) 04:50:40 437.365/2234.400
GONETS M04 20 Jan 04:49:22 04:55:40 21° 47° (NE) 05:01:57
GOMX 1 20 Jan 04:49:44 04:51:51 13° 84° (E) 04:53:55 467.674
Cosmos 2491 20 Jan 04:54:06 05:01:22 28° 305° (NW) 05:08:43 435.465 / 435.565
ITAMSAT 1 20 Jan 05:01:34 05:06:18 36° 298° (WNW) 05:11:01 435.822/435.867
Cubesat XI-IV 20 Jan 05:14:13 05:15:56 11° 82° (E) 05:17:38 437.490
DANDE 20 Jan 05:17:03 05:21:15 62° 289° (WNW) 05:26:57 436.750
NOAA 15 20 Jan 05:23:43 05:26:36 15° 85° (E) 05:29:28 137.62
RS-15 20 Jan 05:28:31 05:40:28 50° 11° (N) 05:52:20 29.354- 29.394
DOVE 4 20 Jan 05:30:51 05:32:41 12° 85° (E) 05:34:30 437.250
HORYU 2 20 Jan 05:33:50 05:37:55 34° 97° (E) 05:41:58 437.375
PCSat 20 Jan 05:34:02 05:37:47 18° 356° (N) 05:41:33 145.827
STARS 20 Jan 05:35:13 05:38:18 19° 270° (W) 05:41:24 437.465
AIST 2 20 Jan 05:42:28 05:44:49 15° 248° (WSW) 05:47:11 435.215
AO-7 20 Jan 05:42:49 05:50:53 54° 303° (WNW) 05:58:54 29.400- 29.500
Cosmos 2499 20 Jan 05:53:23 06:00:08 38° 65° (ENE) 06:06:38 435.465 / 435.565
O/OREOS (USA 219) 20 Jan 05:59:35 06:02:36 18° 101° (ESE) 06:05:38 437.305
CUTE-I 20 Jan 06:08:55 06:13:40 31° 94° (E) 06:18:23 437.470
CUSAT 1 20 Jan 06:15:17 06:19:16 17° 317° (NW) 06:23:43 437.405
STRAND 1 20 Jan 06:16:55 06:21:54 59° 68° (ENE) 06:26:56 437.568
BRITE-PL 20 Jan 06:20:31 06:25:27 49° 293° (WNW) 06:29:58 437.365/2234.400
GOMX 1 20 Jan 06:26:09 06:30:46 89° 304° (NW) 06:35:04 467.674
LilacSat-2 20 Jan 06:30:06 06:33:53 49° 100° (E) 06:37:39 437.200
GONETS M04 20 Jan 06:45:46 06:54:35 65° 73° (ENE) 07:03:23
CUTE 1.7 + AOD 2 20 Jan 06:50:45 06:52:35 12° 85° (E) 06:54:25 437.475
Cubesat XI-IV 20 Jan 06:51:46 06:57:06 64° 103° (ESE) 07:02:24 437.490
NOAA 18 20 Jan 06:53:36 06:58:44 39° 97° (E) 07:03:49 137.9125
PRISM 20 Jan 06:53:56 06:55:04 11° 51° (NE) 06:56:11 437.425
CINEMA 3 20 Jan 07:00:39 07:04:03 23° 93° (E) 07:07:28 145.822/145.860
NOAA 15 20 Jan 07:01:54 07:07:17 79° 106° (ESE) 07:12:35 137.62
DANDE 20 Jan 07:03:09 07:05:41 14° 317° (NW) 07:08:32 436.750
DOVE 4 20 Jan 07:06:50 07:11:07 86° 285° (WNW) 07:15:16 437.250
HORYU 2 20 Jan 07:10:25 07:14:29 36° 296° (WNW) 07:18:33 437.375
CANX-2 20 Jan 07:18:38 07:22:13 25° 92° (E) 07:25:48 2200.000
PCSat 20 Jan 07:18:39 07:23:04 24° 22° (NNE) 07:27:28 145.827
SEEDS 20 Jan 07:30:33 07:33:45 20° 90° (E) 07:36:57 437.485
HO-68 20 Jan 07:35:54 07:42:34 38° 96° (E) 07:49:09 435.675
AO-7 20 Jan 07:36:16 07:41:58 21° 327° (NNW) 07:47:40 29.400- 29.500
COMPASS 1 20 Jan 07:36:49 07:39:32 16° 88° (E) 07:42:13 437.405
O/OREOS (USA 219) 20 Jan 07:37:03 07:41:30 71° 301° (WNW) 07:46:00 437.305
ANTELSAT 20 Jan 07:41:08 07:42:03 11° 50° (NE) 07:42:59 437.575/2403.000
RS-15 20 Jan 07:42:28 07:54:58 79° 42° (NE) 08:07:08 29.354- 29.394
Cosmos 2499 20 Jan 07:46:35 07:53:35 53° 269° (W) 08:00:22 435.465 / 435.565
AAUSAT CUBESAT 2 20 Jan 07:48:22 07:51:06 17° 89° (E) 07:53:49 437.432
CUTE-I 20 Jan 07:48:48 07:53:58 51° 294° (WNW) 07:59:06 437.470
CUBEBUG 2 20 Jan 07:57:03 08:00:35 24° 93° (E) 08:04:10 437.445
STRAND 1 20 Jan 07:57:17 08:01:28 25° 268° (W) 08:05:41 437.568
BRITE-PL 20 Jan 08:01:17 08:02:42 11° 315° (NW) 08:04:06 437.365/2234.400
LilacSat-2 20 Jan 08:04:59 08:07:54 21° 298° (WNW) 08:10:48 437.200
GOMX 1 20 Jan 08:05:28 08:08:10 16° 307° (NW) 08:10:47 467.674
FUNcube-1 20 Jan 08:22:41 08:25:39 18° 89° (E) 08:28:38 145.935
CUTE 1.7 + AOD 2 20 Jan 08:24:46 08:29:07 87° 105° (ESE) 08:33:25 437.475
PRISM 20 Jan 08:25:26 08:29:33 62° 71° (ENE) 08:33:41 437.425
UWE-3 20 Jan 08:25:49 08:29:38 30° 95° (E) 08:33:32 435.000/436.395/437.385
SO-50 20 Jan 08:26:37 08:30:59 39° 123° (ESE) 08:35:19 436.795
Cubesat XI-IV 20 Jan 08:32:24 08:36:49 27° 303° (WNW) 08:41:14 437.490
NOAA 18 20 Jan 08:34:20 08:39:28 42° 298° (WNW) 08:44:34 137.9125
CINEMA 3 20 Jan 08:37:26 08:41:25 45° 291° (WNW) 08:45:26 145.822/145.860
JAS-2 20 Jan 08:40:10 08:44:14 21° 49° (NE) 08:48:38 435.910
NOAA 15 20 Jan 08:42:27 08:46:32 23° 305° (NW) 08:50:35 137.62
GONETS M04 20 Jan 08:43:08 08:51:00 38° 277° (W) 08:58:52
ZACube-1 20 Jan 08:45:04 08:48:54 29° 94° (E) 08:52:47 437.345
UNISAT 6 20 Jan 08:45:32 08:49:23 34° 65° (ENE) 08:53:15 437.425
DOVE 4 20 Jan 08:45:58 08:48:10 14° 306° (NW) 08:50:19 437.250
CANX-2 20 Jan 08:54:09 08:58:17 45° 291° (WNW) 09:02:23 2200.000
TIGRISAT 20 Jan 08:58:46 09:02:46 41° 67° (ENE) 09:06:47 435.000
PCSat 20 Jan 09:02:03 09:07:29 64° 46° (NE) 09:12:53 145.827
SEEDS 20 Jan 09:05:36 09:09:47 55° 290° (WNW) 09:13:57 437.485
DELFI C3 20 Jan 09:07:29 09:09:55 15° 88° (E) 09:12:18 145.870
COMPASS 1 20 Jan 09:11:20 09:15:33 69° 287° (WNW) 09:19:43 437.405
ANTELSAT 20 Jan 09:13:44 09:17:55 59° 70° (ENE) 09:22:09 437.575/2403.000
O/OREOS (USA 219) 20 Jan 09:18:50 09:21:45 17° 324° (NW) 09:24:41 437.305
DUCHIFAT 1 20 Jan 09:21:06 09:21:52 10° 51° (NE) 09:22:37 145.980
Oscar 11 20 Jan 09:21:41 09:25:59 53° 100° (E) 09:30:15 145.826/435.025
AAUSAT CUBESAT 2 20 Jan 09:22:50 09:27:02 67° 287° (WNW) 09:31:10 437.432
HO-68 20 Jan 09:23:35 09:30:37 59° 297° (WNW) 09:37:36 435.675
NANOSAT C BR1 20 Jan 09:25:29 09:27:12 12° 53° (NE) 09:28:54 145.865
AO-7 20 Jan 09:28:56 09:31:40 12° 354° (N) 09:34:25 29.400- 29.500
CUTE-I 20 Jan 09:30:47 09:32:53 12° 315° (NW) 09:35:00 437.470
CUBEBUG 2 20 Jan 09:33:18 09:37:26 47° 291° (WNW) 09:41:39 437.445
Cosmos 2499 20 Jan 09:43:06 09:44:52 11° 292° (WNW) 09:46:36 435.465 / 435.565
RS-15 20 Jan 09:55:29 10:06:46 45° 249° (WSW) 10:17:45 29.354- 29.394
FUNcube-1 20 Jan 09:58:00 10:02:20 68° 287° (WNW) 10:06:44 145.935
CUTE 1.7 + AOD 2 20 Jan 10:01:48 10:04:22 16° 304° (NW) 10:06:55 437.475
UWE-3 20 Jan 10:02:10 10:06:11 39° 293° (WNW) 10:10:18 435.000/436.395/437.385
PRISM 20 Jan 10:02:23 10:05:14 18° 270° (W) 10:08:07 437.425
SO-50 20 Jan 10:06:53 10:11:26 48° 323° (NW) 10:15:55 436.795
QB50P1 20 Jan 10:15:13 10:18:56 32° 65° (ENE) 10:22:41 145.935-145.965
NOAA 18 20 Jan 10:17:27 10:18:50 11° 319° (NW) 10:20:12 137.9125
POLYITAN 1 20 Jan 10:19:14 10:23:02 34° 65° (ENE) 10:26:51 437.675
QB50P2 20 Jan 10:20:23 10:24:16 37° 66° (ENE) 10:28:10 145.880/145.840
ZACube-1 20 Jan 10:21:14 10:25:18 40° 293° (WNW) 10:29:25 437.345
UNISAT 6 20 Jan 10:22:17 10:26:07 32° 264° (W) 10:30:01 437.425
JAS-2 20 Jan 10:22:59 10:28:26 86° 76° (ENE) 10:34:35 435.910
BY70-1 20 Jan 10:30:29 10:32:16 14° 89° (E) 10:34:01 436.1900
HUMSAT D 20 Jan 10:33:03 10:37:17 60° 101° (E) 10:41:33 437.325/437.525
TIGRISAT 20 Jan 10:36:02 10:39:37 26° 266° (W) 10:43:15 435.000
DELFI C3 20 Jan 10:41:10 10:45:11 67° 288° (WNW) 10:49:08 145.870
POPSAT HIP 1 20 Jan 10:41:41 10:45:46 53° 70° (ENE) 10:49:52 437.405
PCSat 20 Jan 10:45:53 10:50:35 30° 247° (WSW) 10:55:15 145.827
Oscar 19 20 Jan 10:48:01 10:50:38 14° 48° (NE) 10:53:15 437.125/150
COMPASS 1 20 Jan 10:48:47 10:50:20 12° 307° (NW) 10:51:52 437.405
ANTELSAT 20 Jan 10:52:01 10:55:02 19° 270° (W) 10:58:05 437.575/2403.000
DUCHIFAT 1 20 Jan 10:52:36 10:56:42 60° 70° (ENE) 11:00:50 145.980
NANOSAT C BR1 20 Jan 10:58:02 11:02:11 73° 73° (ENE) 11:06:24 145.865
Oscar 11 20 Jan 10:58:21 11:01:50 24° 299° (WNW) 11:05:18 145.826/435.025
AAUSAT CUBESAT 2 20 Jan 11:00:19 11:01:43 11° 307° (NW) 11:03:06 437.432
Cosmos 2491 20 Jan 11:00:50 11:07:03 21° 46° (NE) 11:13:14 435.465 / 435.565
Gurwin Techsat 1B 20 Jan 11:02:23 11:04:08 12° 44° (NE) 11:05:54 435.225
HO-68 20 Jan 11:12:19 11:17:01 19° 320° (NW) 11:21:42 435.675
AO-7 20 Jan 11:16:41 11:21:05 16° 22° (NNE) 11:25:30 29.400- 29.500
ESTCUBE 1 20 Jan 11:23:45 11:27:50 32° 95° (E) 11:31:53 437.505/2401.250
BUGSAT 1 20 Jan 11:27:43 11:31:40 53° 70° (ENE) 11:35:37 437.445
CUSAT 1 20 Jan 11:32:44 11:37:15 16° 41° (NE) 11:41:48 437.405
FUNcube-1 20 Jan 11:36:06 11:37:49 12° 307° (NW) 11:39:33 145.935
VELOX 1 20 Jan 11:36:07 11:39:03 17° 89° (E) 11:41:59 145.980
SO-50 20 Jan 11:49:18 11:52:53 22° 346° (NNW) 11:56:27 436.795
QB50P1 20 Jan 11:50:51 11:54:41 34° 264° (W) 11:58:33 145.935-145.965
POLYITAN 1 20 Jan 11:55:07 11:58:52 31° 265° (W) 12:02:39 437.675
QB50P2 20 Jan 11:56:28 12:00:09 29° 265° (W) 12:03:51 145.880/145.840
BY70-1 20 Jan 11:59:37 12:02:58 55° 289° (WNW) 12:06:09 436.1900
SPROUT 20 Jan 12:04:55 12:08:24 24° 93° (E) 12:11:53 437.525
UKube-1 20 Jan 12:08:15 12:10:24 13° 87° (E) 12:12:34 .
DX 1 20 Jan 12:08:25 12:11:24 18° 90° (E) 12:14:21 434.975-435.025
HUMSAT D 20 Jan 12:09:21 12:12:34 21° 300° (WNW) 12:15:47 437.325/437.525
JAS-2 20 Jan 12:10:48 12:14:35 18° 276° (W) 12:18:36 435.910
RS-15 20 Jan 12:13:31 12:15:32 11° 274° (W) 12:17:33 29.354- 29.394
DELFI C3 20 Jan 12:18:11 12:19:13 11° 307° (NW) 12:20:16 145.870
POPSAT HIP 1 20 Jan 12:18:43 12:21:52 20° 269° (W) 12:25:02 437.405
CUBEBUG 1 20 Jan 12:21:53 12:26:13 66° 102° (ESE) 12:30:30 437.445
DANDE 20 Jan 12:22:11 12:25:34 13° 43° (NE) 12:29:11 436.750
Oscar 19 20 Jan 12:23:53 12:29:00 61° 69° (ENE) 12:34:10 437.125/150
DUCHIFAT 1 20 Jan 12:29:52 12:32:47 18° 270° (W) 12:35:42 145.980
NANOSAT C BR1 20 Jan 12:35:56 12:38:26 15° 272° (W) 12:40:56 145.865
Gurwin Techsat 1B 20 Jan 12:37:50 12:42:55 47° 65° (ENE) 12:48:01 435.225
AISAT 20 Jan 12:38:09 12:42:33 63° 102° (ESE) 12:46:53 437.250
50 SAT 20 Jan 12:46:44 12:50:17 59° 102° (ESE) 12:53:48 437.505
Cosmos 2491 20 Jan 12:57:14 13:05:59 65° 73° (ENE) 13:14:44 435.465 / 435.565
ESTCUBE 1 20 Jan 13:00:29 13:04:43 39° 294° (WNW) 13:08:56 437.505/2401.250
AO-7 20 Jan 13:04:12 13:11:32 36° 48° (NE) 13:18:53 29.400- 29.500
BUGSAT 1 20 Jan 13:04:25 13:07:21 19° 269° (W) 13:10:18 437.445
ITAMSAT 1 20 Jan 13:08:02 13:12:07 24° 56° (NE) 13:16:13 435.822/435.867
VELOX 1 20 Jan 13:11:36 13:16:00 69° 289° (WNW) 13:20:22 145.980
YUBILEINY 20 Jan 13:12:39 13:19:44 28° 78° (ENE) 13:26:51 435.215
CUSAT 1 20 Jan 13:13:46 13:21:20 46° 65° (ENE) 13:28:44 437.405
SO-50 20 Jan 13:31:19 13:34:50 21° 11° (N) 13:38:17 436.795
TISAT 1 20 Jan 13:32:45 13:36:26 29° 95° (E) 13:40:05 437.305
SPROUT 20 Jan 13:40:28 13:44:33 46° 292° (WNW) 13:48:37 437.525
UKube-1 20 Jan 13:42:43 13:47:05 87° 287° (WNW) 13:51:23 .
DX 1 20 Jan 13:43:42 13:48:02 66° 289° (WNW) 13:52:19 434.975-435.025
CUBEBUG 1 20 Jan 13:58:57 14:02:05 20° 302° (WNW) 14:05:13 437.445
DANDE 20 Jan 14:03:23 14:10:16 41° 65° (ENE) 14:18:01 436.750
Oscar 19 20 Jan 14:04:27 14:08:44 25° 268° (W) 14:13:01 437.125/150
AO-85 20 Jan 14:10:08 14:14:11 31° 121° (ESE) 14:18:00 145.980
AIST 1 20 Jan 14:10:53 14:15:11 58° 96° (E) 14:19:28
BEESAT 20 Jan 14:13:39 14:17:07 19° 90° (E) 14:20:34 436.000
SWISSCUBE 20 Jan 14:15:07 14:18:51 22° 91° (E) 14:22:34 437.505
AISAT 20 Jan 14:15:20 14:18:38 21° 302° (WNW) 14:21:55 437.250
Gurwin Techsat 1B 20 Jan 14:18:16 14:23:03 33° 265° (W) 14:27:52 435.225
50 SAT 20 Jan 14:20:53 14:23:07 16° 301° (WNW) 14:25:19 437.505
BRITE-PL 20 Jan 14:22:38 14:25:42 15° 50° (NE) 14:28:44 437.365/2234.400
O/OREOS (USA 219) 20 Jan 14:22:53 14:26:21 21° 41° (NE) 14:29:47 437.305
Cosmos 2504 20 Jan 14:24:29 14:32:12 39° 86° (E) 14:39:28 435.465 / 435.565
ITAMSAT 1 20 Jan 14:46:01 14:51:10 70° 256° (WSW) 14:56:22 435.822/435.867
VELOX 1 20 Jan 14:49:45 14:51:42 13° 309° (NW) 14:53:38 145.980
Cosmos 2491 20 Jan 14:54:36 15:02:26 38° 277° (W) 15:10:17 435.465 / 435.565
AO-7 20 Jan 14:55:18 15:03:42 80° 251° (WSW) 15:12:09 29.400- 29.500
CUSAT 1 20 Jan 14:55:49 15:03:33 57° 266° (W) 15:11:00 437.405
HORYU 2 20 Jan 15:04:06 15:05:57 12° 51° (NE) 15:07:48 437.375
YUBILEINY 20 Jan 15:06:44 15:15:35 84° 282° (WNW) 15:24:31 435.215
TISAT 1 20 Jan 15:08:17 15:12:09 37° 294° (WNW) 15:15:59 437.305
SO-50 20 Jan 15:11:57 15:16:20 44° 35° (NE) 15:20:40 436.795
NOAA 15 20 Jan 15:14:26 15:15:22 10° 42° (NE) 15:16:17 137.62
ITUPSAT 1 20 Jan 15:15:58 15:20:45 61° 102° (ESE) 15:25:32 437.325
UKube-1 20 Jan 15:20:03 15:22:29 15° 306° (NW) 15:24:56 .
DX 1 20 Jan 15:21:43 15:23:26 12° 309° (NW) 15:25:08 434.975-435.025
MOZHAYETS 4 20 Jan 15:45:03 15:49:30 43° 98° (E) 15:53:56
DANDE 20 Jan 15:46:01 15:53:21 63° 263° (W) 16:01:33 436.750
AIST 1 20 Jan 15:49:53 15:53:10 20° 296° (WNW) 15:56:26
AO-85 20 Jan 15:50:03 15:54:28 53° 320° (NW) 15:58:36 145.980
BEESAT 20 Jan 15:50:37 15:55:24 70° 289° (WNW) 16:00:10 436.000
SWISSCUBE 20 Jan 15:52:18 15:57:04 62° 290° (WNW) 16:01:47 437.505
BRITE-PL 20 Jan 15:57:36 16:03:13 61° 69° (ENE) 16:08:40 437.365/2234.400
CUTE-I 20 Jan 15:59:01 16:02:41 19° 52° (NE) 16:06:23 437.470
O/OREOS (USA 219) 20 Jan 16:01:49 16:06:19 82° 243° (WSW) 16:10:51 437.305
GOMX 1 20 Jan 16:01:59 16:06:40 33° 63° (ENE) 16:11:08 467.674
AUBIESAT-1 20 Jan 16:11:13 16:13:18 15° 97° (E) 16:15:20 437.475
Cosmos 2504 20 Jan 16:16:52 16:25:20 61° 287° (WNW) 16:33:16 435.465 / 435.565
KKS-1 20 Jan 16:23:59 16:28:03 34° 97° (E) 16:32:05 437.445
HO-68 20 Jan 16:26:47 16:31:14 18° 38° (NE) 16:35:41 435.675
ITAMSAT 1 20 Jan 16:29:31 16:31:37 12° 276° (W) 16:33:44 435.822/435.867
CUBESAT XI-V 20 Jan 16:31:27 16:35:17 24° 91° (E) 16:39:05 437.345
HORYU 2 20 Jan 16:37:20 16:41:42 67° 70° (ENE) 16:46:06 437.375
CUSAT 1 20 Jan 16:39:42 16:43:55 16° 287° (WNW) 16:48:05 437.405
DOVE 4 20 Jan 16:40:45 16:44:56 30° 63° (ENE) 16:48:57 437.250
Cubesat XI-IV 20 Jan 16:40:47 16:45:33 35° 61° (ENE) 16:50:21 437.490
NOAA 18 20 Jan 16:46:50 16:51:23 27° 56° (NE) 16:55:55 137.9125
NOAA 15 20 Jan 16:48:54 16:53:51 42° 63° (ENE) 16:58:51 137.62
AO-7 20 Jan 16:51:38 16:57:48 22° 273° (W) 17:04:04 29.400- 29.500
SO-50 20 Jan 16:52:33 16:56:50 42° 236° (WSW) 17:01:03 436.795
ITUPSAT 1 20 Jan 16:54:23 16:58:15 25° 302° (WNW) 17:02:07 437.325
BEESAT 3 20 Jan 16:58:07 17:01:51 44° 125° (SE) 17:05:38 437.485
YUBILEINY 20 Jan 17:06:43 17:13:53 27° 307° (NW) 17:21:07 435.215
M-CUBED/EXP-1 PRIME 20 Jan 17:08:08 17:11:36 79° 110° (ESE) 17:14:54 437.505
STARS 20 Jan 17:16:35 17:20:53 52° 101° (E) 17:25:08 437.465
LilacSat-2 20 Jan 17:17:31 17:21:14 58° 72° (ENE) 17:25:00 437.200
MOZHAYETS 4 20 Jan 17:22:28 17:26:33 31° 297° (WNW) 17:30:36
BEESAT 20 Jan 17:29:52 17:32:23 14° 309° (NW) 17:34:55 436.000
DANDE 20 Jan 17:30:23 17:34:58 17° 282° (WNW) 17:39:50 436.750
SWISSCUBE 20 Jan 17:31:47 17:33:58 13° 311° (NW) 17:36:09 437.505
AO-85 20 Jan 17:32:31 17:35:42 20° 342° (NNW) 17:38:46 145.980
CUTE-I 20 Jan 17:36:45 17:42:04 86° 72° (ENE) 17:47:26 437.470
BRITE-PL 20 Jan 17:37:08 17:42:00 29° 269° (W) 17:46:48 437.365/2234.400
GOMX 1 20 Jan 17:39:26 17:44:37 49° 261° (W) 17:49:33 467.674
O/OREOS (USA 219) 20 Jan 17:43:03 17:44:59 13° 262° (W) 17:46:55 437.305
BEESAT 2 20 Jan 17:43:09 17:47:01 55° 128° (SE) 17:50:59 435.950
AUBIESAT-1 20 Jan 17:44:44 17:48:05 49° 297° (WNW) 17:51:19 437.475
CUTE 1.7 + AOD 2 20 Jan 17:48:37 17:51:44 20° 59° (ENE) 17:54:53 437.475
KKS-1 20 Jan 18:00:35 18:04:37 35° 296° (WNW) 18:08:38 437.445
GONETS M04 20 Jan 18:03:29 18:07:50 15° 67° (ENE) 18:12:11
CINEMA 3 20 Jan 18:07:48 18:11:56 44° 68° (ENE) 18:15:58 145.822/145.860
CUBESAT XI-V 20 Jan 18:08:22 18:12:59 54° 291° (WNW) 18:17:32 437.345
HO-68 20 Jan 18:10:35 18:17:31 54° 61° (ENE) 18:24:29 435.675
Cosmos 2504 20 Jan 18:15:07 18:20:35 18° 312° (NW) 18:25:52 435.465 / 435.565
HORYU 2 20 Jan 18:15:40 18:18:42 18° 270° (W) 18:21:46 437.375
CANX-2 20 Jan 18:16:52 18:20:48 37° 66° (ENE) 18:24:47 2200.000
DOVE 4 20 Jan 18:17:46 18:22:31 46° 261° (W) 18:27:00 437.250
Cubesat XI-IV 20 Jan 18:20:26 18:25:32 46° 261° (W) 18:30:41 437.490
STRAND 1 20 Jan 18:22:56 18:25:06 13° 84° (E) 18:27:16 437.568
NOAA 18 20 Jan 18:26:12 18:31:41 66° 256° (WSW) 18:37:10 137.9125
SEEDS 20 Jan 18:27:40 18:31:23 30° 64° (ENE) 18:35:07 437.485
NOAA 15 20 Jan 18:28:47 18:33:42 38° 263° (W) 18:38:41 137.62
COMPASS 1 20 Jan 18:32:56 18:36:21 24° 62° (ENE) 18:39:46 437.405
BEESAT 3 20 Jan 18:35:55 18:39:34 36° 326° (NW) 18:43:17 437.485
Cosmos 2499 20 Jan 18:38:11 18:44:41 27° 80° (E) 18:50:49 435.465 / 435.565
M-CUBED/EXP-1 PRIME 20 Jan 18:43:54 18:45:35 13° 311° (NW) 18:47:15 437.505
AAUSAT CUBESAT 2 20 Jan 18:43:56 18:47:21 25° 62° (ENE) 18:50:46 437.432
Oscar 11 20 Jan 18:48:24 18:50:47 15° 54° (NE) 18:53:09 145.826/435.025
STARS 20 Jan 18:53:27 18:56:58 24° 300° (WNW) 19:00:28 437.465
LilacSat-2 20 Jan 18:53:31 18:55:55 16° 271° (W) 18:58:19 437.200
CUBEBUG 2 20 Jan 19:00:54 19:04:46 39° 67° (ENE) 19:08:39 437.445
AO-85 20 Jan 19:14:51 19:17:32 16° 7° (N) 19:20:09 145.980
CUTE-I 20 Jan 19:19:19 19:22:51 18° 273° (W) 19:26:24 437.470
BEESAT 2 20 Jan 19:21:26 19:25:03 32° 328° (NNW) 19:28:42 435.950
CUTE 1.7 + AOD 2 20 Jan 19:22:58 19:27:11 63° 258° (WSW) 19:31:28 437.475
FUNcube-1 20 Jan 19:23:52 19:27:21 27° 63° (ENE) 19:30:54 145.935
UWE-3 20 Jan 19:28:33 19:32:31 47° 69° (ENE) 19:36:32 435.000/436.395/437.385
AIST 2 20 Jan 19:44:00 19:47:29 27° 119° (ESE) 19:51:02 435.215
CINEMA 3 20 Jan 19:45:41 19:49:17 25° 267° (W) 19:52:48 145.822/145.860
ZACube-1 20 Jan 19:46:35 19:50:32 45° 68° (ENE) 19:54:33 437.345
CUBESAT XI-V 20 Jan 19:48:01 19:49:23 11° 311° (NW) 19:50:44 437.345
CANX-2 20 Jan 19:52:58 19:56:44 30° 266° (W) 20:00:33 2200.000
GONETS M04 20 Jan 19:54:12 20:02:39 59° 91° (E) 20:11:12
HUMSAT D 20 Jan 19:56:43 19:58:55 14° 55° (NE) 20:01:08 437.325/437.525
DELFI C3 20 Jan 19:58:32 20:01:37 21° 61° (ENE) 20:04:43 145.870
HO-68 20 Jan 19:58:42 20:05:27 43° 263° (W) 20:12:16 435.675
STRAND 1 20 Jan 20:00:04 20:05:14 72° 104° (ESE) 20:10:22 437.568
SEEDS 20 Jan 20:03:04 20:07:00 37° 264° (W) 20:11:00 437.485
COMPASS 1 20 Jan 20:07:36 20:11:40 47° 261° (W) 20:15:47 437.405
NOAA 18 20 Jan 20:11:13 20:13:25 12° 276° (W) 20:15:37 137.9125
BEESAT 3 20 Jan 20:15:39 20:18:14 16° 349° (N) 20:20:49 437.485
AAUSAT CUBESAT 2 20 Jan 20:18:34 20:22:36 46° 261° (W) 20:26:41 437.432
Oscar 11 20 Jan 20:21:56 20:26:16 85° 74° (ENE) 20:30:38 145.826/435.025
Cosmos 2499 20 Jan 20:28:46 20:37:05 82° 281° (WNW) 20:44:48 435.465 / 435.565
CUBEBUG 2 20 Jan 20:38:01 20:41:33 26° 266° (W) 20:45:05 437.445
AO-85 20 Jan 20:55:24 20:59:05 33° 32° (NNE) 21:02:39 145.980
ESTCUBE 1 20 Jan 20:55:42 20:57:15 12° 50° (NE) 20:58:48 437.505/2401.250
FUNcube-1 20 Jan 20:59:35 21:03:29 40° 263° (W) 21:07:27 145.935
BEESAT 2 20 Jan 21:01:24 21:03:57 16° 351° (N) 21:06:32 435.950
UWE-3 20 Jan 21:06:00 21:09:15 22° 268° (W) 21:12:32 435.000/436.395/437.385
AIST 2 20 Jan 21:21:38 21:25:44 56° 319° (NW) 21:29:54 435.215
ZACube-1 20 Jan 21:23:43 21:27:03 23° 268° (W) 21:30:26 437.345
JAS-2 20 Jan 21:26:45 21:29:14 12° 78° (ENE) 21:31:46 435.910
HUMSAT D 20 Jan 21:29:46 21:33:54 88° 74° (ENE) 21:38:06 437.325/437.525
DELFI C3 20 Jan 21:32:13 21:36:08 51° 260° (W) 21:40:06 145.870
PRISM 20 Jan 21:36:01 21:39:58 42° 99° (E) 21:43:52 437.425
STRAND 1 20 Jan 21:39:57 21:43:58 24° 304° (NW) 21:47:59 437.568
CUBEBUG 1 20 Jan 21:48:49 21:51:53 19° 57° (ENE) 21:54:58 437.445
GONETS M04 20 Jan 21:51:40 21:59:52 43° 295° (WNW) 22:08:11
BEESAT 3 20 Jan 21:54:36 21:57:15 17° 13° (NNE) 21:59:55 437.485
Oscar 11 20 Jan 22:00:46 22:03:02 14° 274° (W) 22:05:18 145.826/435.025
AISAT 20 Jan 22:06:15 22:09:26 20° 57° (ENE) 22:12:36 437.250
UNISAT 6 20 Jan 22:07:00 22:11:00 33° 96° (E) 22:15:04 437.425
RS-15 20 Jan 22:16:55 22:25:20 23° 97° (E) 22:33:54 29.354- 29.394
BY70-1 20 Jan 22:19:18 22:22:25 84° 77° (ENE) 22:25:47 436.1900
TIGRISAT 20 Jan 22:20:07 22:24:17 40° 98° (E) 22:28:31 435.000
Cosmos 2499 20 Jan 22:25:09 22:31:26 24° 305° (NW) 22:37:26 435.465 / 435.565
ESTCUBE 1 20 Jan 22:28:42 22:33:10 59° 70° (ENE) 22:37:40 437.505/2401.250
ANTELSAT 20 Jan 22:35:23 22:39:45 58° 101° (E) 22:44:12 437.575/2403.000
AO-85 20 Jan 22:35:48 22:39:39 49° 234° (SW) 22:43:25 145.980
VELOX 1 20 Jan 22:38:36 22:42:33 33° 64° (ENE) 22:46:32 145.980
BEESAT 2 20 Jan 22:40:18 22:43:09 18° 15° (NNE) 22:46:01 435.950
ISS 20 Jan 22:53:11 22:55:34 19° 146° (SSE) 22:57:58 145.825
AIST 2 20 Jan 23:01:51 23:05:02 20° 342° (NNW) 23:08:15 435.215
SPROUT 20 Jan 23:03:46 23:07:43 39° 67° (ENE) 23:11:42 437.525
UKube-1 20 Jan 23:07:44 23:11:19 26° 61° (ENE) 23:14:54 .
HUMSAT D 20 Jan 23:08:23 23:10:10 12° 274° (W) 23:11:58 437.325/437.525
JAS-2 20 Jan 23:08:55 23:15:45 51° 98° (E) 23:23:11 435.910
DX 1 20 Jan 23:09:10 23:13:06 33° 64° (ENE) 23:17:02 434.975-435.025
PRISM 20 Jan 23:11:39 23:15:06 26° 298° (WNW) 23:18:32 437.425
YUBILEINY 20 Jan 23:12:58 23:19:33 22° 48° (NE) 23:26:05 435.215
CUBEBUG 1 20 Jan 23:23:19 23:27:43 72° 257° (WSW) 23:32:08 437.445
50 SAT 20 Jan 23:26:44 23:30:17 63° 72° (ENE) 23:33:51 437.505
QB50P1 20 Jan 23:29:11 23:32:42 25° 93° (E) 23:36:12 145.935-145.965
BEESAT 3 20 Jan 23:32:05 23:35:52 39° 36° (NE) 23:39:39 437.485
POLYITAN 1 20 Jan 23:33:26 23:37:04 27° 94° (E) 23:40:42 437.675
QB50P2 20 Jan 23:34:38 23:38:23 30° 95° (E) 23:42:06 145.880/145.840
AISAT 20 Jan 23:41:01 23:45:28 71° 257° (WSW) 23:49:55 437.250
UNISAT 6 20 Jan 23:43:43 23:47:46 36° 294° (WNW) 23:51:52 437.425
PCSat 20 Jan 23:52:30 23:55:18 14° 104° (ESE) 23:58:08 145.827
SWISSCUBE 20 Jan 23:53:57 23:54:52 11° 46° (NE) 23:55:49 437.505
GONETS M04 20 Jan 23:55:25 23:59:47 14° 324° (NW) 00:04:10
POPSAT HIP 1 20 Jan 23:55:52 23:59:54 42° 99° (E) 00:03:55 437.405
TIGRISAT 20 Jan 23:57:03 00:00:54 30° 296° (WNW) 00:04:48 435.000
DUCHIFAT 1 21 Jan 00:06:00 00:10:04 46° 99° (E) 00:14:07 145.980
ESTCUBE 1 21 Jan 00:06:52 00:10:20 21° 269° (W) 00:13:51 437.505/2401.250
Cosmos 2504 21 Jan 00:09:28 00:14:59 21° 51° (NE) 00:20:17 435.465 / 435.565
AIST 1 21 Jan 00:11:42 00:15:27 28° 68° (ENE) 00:19:10
NANOSAT C BR1 21 Jan 00:11:47 00:15:57 57° 101° (ESE) 00:20:06 145.865
ANTELSAT 21 Jan 00:12:44 00:16:10 23° 300° (WNW) 00:19:39 437.575/2403.000
VELOX 1 21 Jan 00:14:51 00:18:59 37° 263° (W) 00:23:08 145.980
Cosmos 2491 21 Jan 00:15:08 00:19:24 15° 67° (ENE) 00:23:41 435.465 / 435.565
BEESAT 2 21 Jan 00:17:55 00:21:51 46° 38° (NE) 00:25:46 435.950
